sat.trackr.live / text

‹ back to catalog

STARLINK-37040

NORAD 69362 · 2026-123K

PAYLOAD ACTIVE UNKNOWN

§ Identity

Operator
Country
US
Launch date
2026-06-04
Launch site
AFETR
Launch vehicle
Mass (kg)
RCS (m²)

Purposes: comms

External: N2YO · Heavens-Above · Gunter

§ Orbital elements

Epoch: 2026-09-19T23:07:31.382688Z

Period
93.85 min
Inclination
53.1562°
Eccentricity
0.0001171
Mean motion
15.34395822 rev/d
Perigee alt
461.9 km
Apogee alt
463.5 km
Semi-major
6,840.9 km
B*
4.1205e-4
RAAN
144.5074°
Arg perigee
92.4959°
Mean anomaly
267.6178°
Rev number
1,678

§ Raw data

STARLINK-370401 69362U 26123K   26262.96355767  .00013569  00000+0  41205-3 0  99942 69362  53.1562 144.5074 0001171  92.4959 267.6178 15.34395822 16784

JSON: /api/v1/satellites/69362 · /tle

For live sub-satellite position, see the globe view (requires WebGL).

§ Visibility from observer

Set your observer location to see the next 7 days of passes ≥ 10°. The values pass through the URL so the page stays shareable.

No JS? Fill the form by hand. The geolocation button needs JavaScript.